Regional Weather Roundup
Issued by NWS Kansas City/Pleasant Hill, MO

Home | Current Version | Previous Version | Text Only | Print | Product List | Glossary On
Versions: 1 2 3 4 5 6 7 8 9 10 11 12 13 14 15 16 17 18 19 20 21 22 23 24 25 26 27 28
000
ASUS43 KEAX 040110
RWREAX

WEATHER ROUNDUP FOR EASTERN KANSAS AND NORTHWEST MISSOURI
NATIONAL WEATHER SERVICE KANSAS CITY/PLEASANT HILL MO
700 PM CST SAT DEC 03 2016

KSZ040-057-103>105-MOZ028-029-037-043-040200-
...KANSAS CITY METROPOLITAN AREA...

CITY           SKY/WX    TMP DP  RH WIND       PRES   REMARKS
K.C. INTL      CLOUDY    45  30  55 E7        30.13S
K.C. DOWNTOWN  CLOUDY    48  32  53 SE6       30.13F
LEES SUMMIT    CLOUDY    46  32  58 SE7       30.14F
OLATHE - IXD   CLOUDY    45  33  63 SE7       30.12F
OLATHE - OJC   CLOUDY    45  32  60 MISG      30.12F
LAWRENCE       CLOUDY    44  34  67 NE5       30.12F

$$

MOZ001>008-011>017-020>025-030>033-038>040-044>046-053-054-040200-
...NORTHERN AND CENTRAL MISSOURI...

CITY           SKY/WX    TMP DP  RH WIND       PRES   REMARKS
ST. JOSEPH     CLOUDY    43  31  62 E5        30.14F
MOSBY          CLOUDY    45  32  61 E6        30.15S
WARRENSBURG    CLOUDY    45  32  61 E7        30.16S
WHITEMAN AFB   MOCLDY    44  34  68 SE8       30.15F
CLINTON        CLOUDY    46  32  57 SE8       30.17R
SEDALIA        CLOUDY    44  32  62 E9        30.17F
WARSAW         NOT AVBL
CHILLICOTHE      N/A     43  32  65 E7        30.19S
KIRKSVILLE     CLOUDY    41  33  73 E10       30.21F WCI  35

$$

MOZ041-047>049-056>058-063>065-088>090-097-040200-
...EASTERN AND SOUTHERN MISSOURI...

CITY           SKY/WX    TMP DP  RH WIND       PRES   REMARKS
ST. LOUIS INTL CLOUDY    42  32  67 E7        30.27S
SPIRIT OF STL  CLOUDY    40  34  79 E5        30.26S
COLUMBIA       CLOUDY    42  32  67 E10       30.20F
JEFFERSON CITY CLOUDY    44  32  62 E7        30.21F
ROLLA          CLOUDY    41  31  67 SE7       30.19F
OSAGE BEACH    CLOUDY    44  31  60 SE8       30.20F
SPRINGFIELD    LGT RAIN  40  35  83 SE13      30.13F WCI  32
BRANSON        LGT RAIN  37  37 100 E14       30.14F FOG     WCI  29
JOPLIN         LGT RAIN  42  39  89 E7        30.12F
WEST PLAINS    LGT RAIN  38  36  92 E9        30.21F WCI  31

$$

IAZ060-094-KSZ022-034>040-054-083-096-NEZ052-066-093-040200-
...KANSAS...SOUTHEAST NEBRASKA AND IOWA...

CITY           SKY/WX    TMP DP  RH WIND       PRES   REMARKS
TOPEKA         CLOUDY    43  38  82 CALM      30.11F
MANHATTAN      LGT RAIN  39  38  96 CALM      30.12S FOG
EMPORIA        CLOUDY    42  37  82 CALM      30.11S
CHANUTE        LGT RAIN  46  41  82 E5        30.11F
WICHITA        LGT RAIN  42  40  92 CALM      30.09S
OMAHA          LGT SNOW  33  30  88 SE6       30.14F FOG     WCI  28
LINCOLN        LGT SNOW  33  32  96 E5        30.12F VSB 1   WCI  29
FALLS CITY     LGT RAIN  38  36  92 E5        30.12F WCI  34
LAMONI         CLOUDY    41  32  70 E6        30.16F
DES MOINES     LGT RAIN  39  33  79 E6        30.20S WCI  35

$$





USA.gov is the U.S. government's official web portal to all federal, state and local government web resources and services.